Yakima, WA
on Wednesday, January 9, 2013

Wednesday
Previous Day Next Day
Daily Summary
 ActualAverageRecord
Temperature
Mean Temperature °F 30°F  
Max Temperature 53°F 37°F 59°F (1983)
Min Temperature 32°F 22°F -15°F (1974)
Degree Days
Heating Degree Days 22 35  
Month to date heating degree days 292 326  
Since 1 July heating degree days 2506 2989  
Cooling Degree Days 0 0  
Month to date cooling degree days 0 0  
Year to date cooling degree days 0 0  
Moisture
Dew Point 30°F   
Average Humidity 66    
Maximum Humidity 89    
Minimum Humidity 42    
Precipitation
Precipitation 0.00 in 0.04 in 0.64 in (1995)
Month to date precipitation 0.09 0.39  
Year to date precipitation 0.09 0.39  
Snow
Snow 0.00 in 0.20 in 3.50 in (1968)
Month to date snowfall 1.1 2.1  
Year to date snowfall 1.1 2.1  
Since 1 July snowfall 15.3 15.1  
Snow Depth 0.00 in   
Wind
Wind Speed 13 mph   
Max Wind Speed 30 mph   
Max Gust Speed 39 mph   
Visibility 10 miles   
Events     

Key: T is trace of precipitation, MM is missing value
Source: NWS Daily Summary
Time(PST)TemperatureDew PointHumidity Pressure Visibility Wind DirectionWind SpeedGust SpeedPrecipitationEvents Conditions
12:53 AM 51.1°F 37.0°F 59% 29.78 in 10.0 miles South 23.0 mph 32.2 mph N/A   Clear
1:53 AM 51.1°F 36.0°F 56% 29.78 in 10.0 miles South 21.9 mph 39.1 mph N/A   Clear
2:53 AM 51.1°F 35.1°F 54% 29.78 in 10.0 miles South 15.0 mph - N/A   Clear
3:53 AM 51.1°F 35.1°F 54% 29.76 in 10.0 miles SSW 15.0 mph 31.1 mph N/A   Clear
4:53 AM 51.1°F 34.0°F 52% 29.73 in 10.0 miles South 16.1 mph 26.5 mph N/A   Clear
5:53 AM 48.9°F 34.0°F 56% 29.70 in 10.0 miles SE 5.8 mph - N/A   Clear
6:53 AM 50.0°F 33.1°F 52% 29.68 in 10.0 miles SSW 9.2 mph - N/A   Clear
7:53 AM 48.2°F 33.8°F 58% 29.63 in 10.0 miles South 12.7 mph - N/A   Clear
8:53 AM 50.0°F 34.0°F 54% 29.64 in 10.0 miles South 16.1 mph 23.0 mph N/A   Partly Cloudy
9:53 AM 48.9°F 37.0°F 64% 29.64 in 10.0 miles SSW 16.1 mph 21.9 mph N/A   Clear
10:31 AM 50.0°F 35.6°F 58% 29.63 in 10.0 miles WSW 11.5 mph 24.2 mph N/A   Mostly Cloudy
10:53 AM 48.9°F 36.0°F 61% 29.66 in 10.0 miles West 9.2 mph - N/A   Mostly Cloudy
11:53 AM 48.0°F 32.0°F 54% 29.66 in 10.0 miles West 8.1 mph - N/A   Scattered Clouds
12:53 PM 48.9°F 28.0°F 44% 29.66 in 10.0 miles West 19.6 mph 28.8 mph N/A   Scattered Clouds
1:53 PM 48.0°F 28.0°F 46% 29.68 in 10.0 miles West 15.0 mph 24.2 mph N/A   Scattered Clouds
2:53 PM 48.9°F 27.0°F 43% 29.70 in 10.0 miles West 16.1 mph 24.2 mph N/A   Clear
3:53 PM 46.0°F 26.1°F 46% 29.74 in 10.0 miles West 20.7 mph - N/A   Clear
4:53 PM 44.1°F 24.1°F 45% 29.76 in 10.0 miles West 15.0 mph - N/A   Mostly Cloudy
5:53 PM 43.0°F 24.1°F 47% 29.78 in 10.0 miles West 13.8 mph - N/A   Clear
6:53 PM 39.0°F 25.0°F 57% 29.83 in 10.0 miles West 8.1 mph - N/A   Clear
7:53 PM 37.0°F 24.1°F 59% 29.83 in 10.0 miles SW 5.8 mph - N/A   Clear
8:53 PM 35.1°F 25.0°F 67% 29.85 in 10.0 miles WNW 9.2 mph - N/A   Clear
9:53 PM 34.0°F 24.1°F 67% 29.87 in 10.0 miles SW 4.6 mph - N/A   Clear
10:53 PM 36.0°F 21.9°F 57% 29.87 in 10.0 miles NNW 8.1 mph - N/A   Clear
11:53 PM 34.0°F 21.0°F 59% 29.87 in 10.0 miles Calm Calm - N/A   Clear
Moon Phase
Jan. 09 Jan. 11 Jan. 18 Jan. 26 Feb. 03
Sunrise:07:44 AM (PST) Moon Rise:05:29 AM (PST)1/9
Sunset:04:34 PM (PST) Moon Set:02:41 PM (PST)1/9

Copyright © 2014 The Weather Underground, Inc.